Orbital Elements at Epoch 2459200.5 (2020-Dec-17.0) TDB
Reference: JPL 9 (heliocentric ecliptic J2000)
Element | Value | Uncertainty (1-sigma) | Units |
e | .6204046255586789 | 0.000521 | |
a | 1.886543652984706 | 0.0022585 | au |
q | .7161232443546272 | 0.00012557 | au |
i | 16.31112164086391 | 0.011201 | deg |
node | 46.02700666095059 | 0.0018073 | deg |
peri | 76.74254769500197 | 0.0025633 | deg |
M | 330.8519996244005 | 1.2439 | deg |
tp | 2459277.131086087500 (2021-Mar-03.63108609) | 3.4078 | TDB |
period | 946.4522655418239 2.59 | 1.6996 0.004653 | d yr |
n | .3803678358716883 | 0.00068305 | deg/d |
Q | 3.056964061614785 | 0.0036597 | au |
|
| | Orbit Determination Parameters
Additional Information
|